sat.trackr.live / text

‹ back to catalog

STARLINK-4583

NORAD 53568 · 2022-101AT

PAYLOAD ACTIVE UNKNOWN

§ Identity

Operator
Country
US
Launch date
2022-08-19
Launch site
AFETR
Launch vehicle
Mass (kg)
RCS (m²)

Purposes: comms

External: N2YO · Heavens-Above · Gunter

§ Orbital elements

Epoch: 2026-09-19T16:24:38.488320Z

Period
93.85 min
Inclination
53.1586°
Eccentricity
0.0001325
Mean motion
15.34384104 rev/d
Perigee alt
461.8 km
Apogee alt
463.7 km
Semi-major
6,840.9 km
B*
8.4260e-6
RAAN
247.7244°
Arg perigee
94.3504°
Mean anomaly
265.7650°
Rev number
22,663

§ Raw data

STARLINK-45831 53568U 22101AT  26262.68377880 -.00000092  00000+0  84260-5 0  99942 53568  53.1586 247.7244 0001325  94.3504 265.7650 15.34384104226636

JSON: /api/v1/satellites/53568 · /tle

For live sub-satellite position, see the globe view (requires WebGL).

§ Visibility from observer

Set your observer location to see the next 7 days of passes ≥ 10°. The values pass through the URL so the page stays shareable.

No JS? Fill the form by hand. The geolocation button needs JavaScript.